Regional Weather Roundup
Issued by NWS Little Rock, AR

Home | Current Version | Previous Version | Graphics & Text | Print | Product List | Glossary On
Versions: 1 2 3 4 5 6 7 8 9 10 11 12 13 14 15 16 17 18 19 20 21 22 23 24 25 26 27 28 29 30 31 32 33 34 35 36 37 38 39 40 41 42 43 44 45 46 47 48 49 50
655
ASUS44 KLZK 260805
RWRLZK

WEATHER ROUNDUP FOR ARKANSAS
NATIONAL WEATHER SERVICE LITTLE ROCK AR
300 AM CDT MON JUN 26 2017

NOTE: "FAIR" INDICATES FEW OR NO CLOUDS BELOW 12,000 FEET WITH NO
SIGNIFICANT WEATHER AND/OR OBSTRUCTIONS TO VISIBILITY.

ARZ001-003-010-029-260900-
NORTHWEST ARKANSAS

CITY           SKY/WX    TMP DP  RH WIND       PRES   REMARKS
FAYETTEVILLE   CLOUDY    65  62  90 CALM      30.23S
FORT SMITH     CLOUDY    72  63  73 CALM      30.19S
HARRISON       CLOUDY    65  61  87 CALM      30.24S
BENTONVILLE    CLOUDY    70  57  64 CALM      30.24F
ROGERS         CLOUDY    66  60  81 CALM      30.25S
SILOAM SPGS    CLOUDY    68  59  73 E3        30.23R
HIGHFILL       CLOUDY    69  60  73 N3        30.24S
$$

ARZ004-005-016-260900-
NORTH CENTRAL ARKANSAS

CITY           SKY/WX    TMP DP  RH WIND       PRES   REMARKS
BATESVILLE     MOCLDY    66  61  82 CALM      30.20S
FLIPPIN        CLOUDY    64  57  77 CALM      30.20S
MTN HOME       CLOUDY    64  59  83 CALM      30.22
$$

ARZ040-041-260900-
WEST CENTRAL ARKANSAS

CITY           SKY/WX    TMP DP  RH WIND       PRES   REMARKS
MENA           MOCLDY    66  64  94 CALM      30.22S
MOUNT IDA      CLOUDY    66  64  93 CALM      30.19S
$$

ARZ009-017-025-026-028-260900-
NORTHEAST ARKANSAS

CITY           SKY/WX    TMP DP  RH WIND       PRES   REMARKS
JONESBORO      CLOUDY    71  60  68 W6        30.17S
WALNUT RIDGE   CLOUDY    70  57  64 NW6       30.19R
BLYTHEVILLE    CLOUDY    69  65  86 NW5       30.17S
$$

ARZ022-023-033-042-044-260900-
CENTRAL ARKANSAS

CITY           SKY/WX    TMP DP  RH WIND       PRES   REMARKS
LITTLE ROCK    CLOUDY    66  65  96 SW5       30.19S
N LITTLE ROCK    N/A     71  61  70 CALM      30.19S
JACKSONVILLE   CLOUDY    66  65  95 SW5       30.19R
CONWAY           N/A     68  66  94 CALM      30.18S
SEARCY         LGT RAIN  66  64  93 W3        30.20F
HOT SPRINGS    PTCLDY    69  63  81 CALM      30.20F
RUSSELLVILLE   CLOUDY    69  64  84 NW5       30.20S
CLINTON        CLOUDY    64  63  94 CALM      30.22R
$$

ARZ036-260900-
EAST ARKANSAS

CITY           SKY/WX    TMP DP  RH WIND       PRES   REMARKS
WEST MEMPHIS   CLOUDY    65  63  93 CALM      30.16S
$$

ARZ050-053-066-070-073-260900-
SOUTHWEST ARKANSAS

CITY           SKY/WX    TMP DP  RH WIND       PRES   REMARKS
CAMDEN         CLEAR     64  61  88 CALM      30.18S
TEXARKANA      CLOUDY    65  65 100 CALM      30.18S
EL DORADO      CLEAR     64  62  93 CALM      30.17F
DE QUEEN       PTCLDY    67  66  97 CALM      30.17S
$$

ARZ056-057-069-260900-
SOUTHEAST ARKANSAS

CITY           SKY/WX    TMP DP  RH WIND       PRES   REMARKS
PINE BLUFF     PTCLDY    65  64  97 CALM      30.18F
STUTTGART      CLOUDY    70  57  64 CALM      30.19S
MONTICELLO     CLEAR     65  63  93 CALM      30.17F

$$






USA.gov is the U.S. government's official web portal to all federal, state and local government web resources and services.